Weather History for Krasnodar, Russia

Change the Weather History Date:

Saturday, January 19, 2013

  Actual Average Record
Temperature  
Mean Temperature 46 °F -  
Max Temperature 51 °F - - ()
Min Temperature 41 °F - - ()
Degree Days  
Heating Degree Days 19    
Moisture  
Dew Point 37 °F    
Average Humidity 69    
Maximum Humidity 81    
Minimum Humidity 47    
Precipitation  
Precipitation 0.00 in 0.06 in - ()
Sea Level Pressure  
Sea Level Pressure 29.76 in    
Wind  
Wind Speed 7 mph ()    
Max Wind Speed 18 mph    
Max Gust Speed 25 mph    
Visibility 2.5 miles    
Events      
T = Trace of Precipitation, MM = Missing Value Source: Averaged Metar Reports

Daily Weather History Graph

Daily Weather History Graph

Search for Another Location

Airport:

Trip Planner

Search our weather history database for the weather conditions in past years. The results will help you decide how hot, cold, wet, or windy it might be!

Date:

Astronomy

Jan. 19, 2013 Rise Set
Actual Time 8:55 AM MSK 6:13 PM MSK
Civil Twilight 8:23 AM MSK 6:45 PM MSK
Nautical Twilight 7:47 AM MSK 7:21 PM MSK
Astronomical Twilight 7:12 AM MSK 7:56 PM MSK
Moon 12:31 PM MSK 2:03 AM MSK
Length of Visible Light 10h 22m
Length of Day
9h 17m
First Quarter, 53% of the Moon is Illuminated
Jan 19
First Quarter
Jan 27
Full
Feb 3
Last Quarter
Feb 10
New
Feb 18
First Quarter

Hourly Weather History & Observations

Time (MSK) Temp. Windchill Dew Point Humidity Pressure Visibility Wind Dir Wind Speed Gust Speed Precip Events Conditions
12:00 AM 42.8 °F 38.7 °F 35.6 °F 76% 29.86 in - East 6.7 mph - N/A   Clear
12:30 AM 44.6 °F 42.3 °F 35.6 °F 71% 29.86 in - East 4.5 mph - N/A   Clear
1:00 AM 42.8 °F 40.2 °F 35.6 °F 76% 29.86 in - West 4.5 mph - N/A   Clear
1:30 AM 42.8 °F 40.2 °F 35.6 °F 76% 29.83 in - East 4.5 mph - N/A   Clear
2:00 AM 42.8 °F 40.2 °F 35.6 °F 76% 29.83 in - East 4.5 mph - N/A   Clear
2:30 AM 42.8 °F 38.7 °F 35.6 °F 76% 29.83 in - East 6.7 mph - N/A   Clear
3:00 AM 46.4 °F 43.0 °F 35.6 °F 66% 29.83 in - SE 6.7 mph - N/A   Clear
3:30 AM 48.2 °F - 35.6 °F 62% 29.83 in - SE 6.7 mph - N/A   Clear
4:00 AM 46.4 °F 43.0 °F 35.6 °F 66% 29.83 in - SE 6.7 mph 13.4 mph N/A   Clear
4:30 AM 46.4 °F 43.0 °F 35.6 °F 66% 29.83 in - SE 6.7 mph - N/A   Clear
5:00 AM 46.4 °F 43.0 °F 35.6 °F 66% 29.80 in - ESE 6.7 mph - N/A   Clear
5:30 AM 46.4 °F 42.0 °F 35.6 °F 66% 29.80 in - East 8.9 mph 15.7 mph N/A   Clear
6:00 AM 44.6 °F 38.9 °F 35.6 °F 71% 29.77 in - East 11.2 mph - N/A   Clear
6:30 AM 46.4 °F 41.2 °F 37.4 °F 71% 29.77 in - ESE 11.2 mph - N/A   Clear
7:00 AM 44.6 °F 38.9 °F 37.4 °F 76% 29.77 in - ESE 11.2 mph - N/A   Clear
7:30 AM 46.4 °F 42.0 °F 35.6 °F 66% 29.77 in - SE 8.9 mph - N/A   Clear
8:00 AM 42.8 °F 36.7 °F 35.6 °F 76% 29.80 in - East 11.2 mph - N/A   Clear
8:30 AM 41.0 °F 35.4 °F 35.6 °F 81% 29.80 in - ESE 8.9 mph - N/A   Clear
9:00 AM 41.0 °F 36.5 °F 35.6 °F 81% 29.80 in - SE 6.7 mph - N/A   Clear
9:30 AM 42.8 °F 37.6 °F 35.6 °F 76% 29.80 in - East 8.9 mph - N/A   Clear
10:00 AM 42.8 °F 40.2 °F 35.6 °F 76% 29.77 in - East 4.5 mph - N/A   Clear
10:30 AM 46.4 °F 41.2 °F 37.4 °F 71% 29.77 in - ENE 11.2 mph - N/A   Clear
11:00 AM 46.4 °F 42.0 °F 37.4 °F 71% 29.77 in - East 8.9 mph - N/A   Clear
11:30 AM 46.4 °F 41.2 °F 37.4 °F 71% 29.77 in - ENE 11.2 mph - N/A   Clear
12:00 PM 48.2 °F - 37.4 °F 66% 29.77 in - ENE 6.7 mph - N/A   Clear
12:30 PM 46.4 °F 42.0 °F 37.4 °F 71% 29.74 in - East 8.9 mph - N/A   Clear
1:00 PM 48.2 °F - 37.4 °F 66% 29.74 in - East 11.2 mph - N/A   Clear
1:30 PM 48.2 °F - 37.4 °F 66% 29.71 in - East 8.9 mph - N/A   Clear
2:00 PM 51.8 °F - 37.4 °F 58% 29.71 in - East 8.9 mph - N/A   Clear
2:30 PM 51.8 °F - 39.2 °F 62% 29.71 in - ENE 6.7 mph - N/A   Clear
3:00 PM 51.8 °F - 37.4 °F 58% 29.71 in - East 4.5 mph - N/A   Clear
3:30 PM 51.8 °F - 39.2 °F 62% 29.68 in - NE 6.7 mph - N/A   Clear
4:00 PM 51.8 °F - 39.2 °F 62% 29.71 in - East 6.7 mph - N/A   Clear
4:30 PM 48.2 °F - 39.2 °F 71% 29.71 in - East 4.5 mph - N/A   Clear
5:00 PM 48.2 °F - 39.2 °F 71% 29.71 in - ENE 6.7 mph - N/A   Clear
5:30 PM 48.2 °F - 39.2 °F 71% 29.71 in - East 4.5 mph - N/A   Clear
6:00 PM 46.4 °F 44.4 °F 39.2 °F 76% 29.71 in - East 4.5 mph - N/A   Clear
6:30 PM 44.6 °F 42.3 °F 39.2 °F 81% 29.71 in - ENE 4.5 mph - N/A   Clear
7:00 PM 44.6 °F - 37.4 °F 76% 29.71 in - Variable 2.2 mph - N/A   Clear
7:30 PM 42.8 °F 40.2 °F 37.4 °F 81% 29.71 in - NE 4.5 mph - N/A   Clear
8:00 PM 44.6 °F 42.3 °F 35.6 °F 71% 29.71 in 1.9 mi North 4.5 mph - N/A   Smoke
8:30 PM 41.0 °F 38.1 °F 35.6 °F 81% 29.71 in 3.1 mi East 4.5 mph - N/A   Smoke
9:00 PM 50.0 °F - 30.2 °F 47% 29.71 in - SW 15.7 mph 22.4 mph N/A   Clear
9:30 PM 51.8 °F - 33.8 °F 50% 29.71 in - SW 17.9 mph 24.6 mph N/A   Clear
10:00 PM 51.8 °F - 33.8 °F 50% 29.74 in - SW 13.4 mph 20.1 mph N/A   Clear
10:30 PM 50.0 °F - 35.6 °F 58% 29.74 in - SSW 13.4 mph - N/A   Clear
11:00 PM 48.2 °F - 35.6 °F 62% 29.74 in - SSW 11.2 mph 20.1 mph N/A   Clear
11:30 PM 50.0 °F - 35.6 °F 58% 29.74 in - WSW 6.7 mph - N/A   Clear